This is the latest recevied weather packets stored in our database for station/object KM4NDN. If no packets are shown the sender has not sent any weather packets the latest 10 day(s).
| Time | Temp. | Humidity | Pressure | Rain* | Wind** | Luminosity | Snow |
|---|---|---|---|---|---|---|---|
| 1778201474 | 11.11° C | 53% | 1010.7 hPa | 0 mm | - | 0 W/m² | - |
| 1778201170 | 11.11° C | 60% | 1010.6 hPa | 0 mm | - | 0 W/m² | - |
| 1778200868 | 11.11° C | 59% | 1010.7 hPa | 0 mm | - | 1 W/m² | - |
| 1778200564 | 10.56° C | 60% | 1010.8 hPa | 0 mm | - | 1 W/m² | - |
| 1778200262 | 10.56° C | 60% | 1010.5 hPa | 0 mm | - | 3 W/m² | - |
| 1778199958 | 10.56° C | 54% | 1010.5 hPa | 0 mm | - | 4 W/m² | - |
| 1778199655 | 10.56° C | 56% | 1010.4 hPa | 0 mm | - | 5 W/m² | - |
| 1778199351 | 10.56° C | 56% | 1010.6 hPa | 0 mm | - | 8 W/m² | - |
| 1778199047 | 10.56° C | 54% | 1010.2 hPa | 0 mm | - | 13 W/m² | - |
| 1778198743 | 11.11° C | 53% | 1010.3 hPa | 0 mm | - | 17 W/m² | - |
| 1778198441 | 11.67° C | 52% | 1010.4 hPa | 0 mm | - | 22 W/m² | - |
| 1778198137 | 11.67° C | 51% | 1010.4 hPa | 0 mm | - | 26 W/m² | - |
| 1778197835 | 12.22° C | 49% | 1010.4 hPa | 0 mm | - | 30 W/m² | - |
| 1778197531 | 12.78° C | 47% | 1010.3 hPa | 0 mm | - | 35 W/m² | - |
| 1778197227 | 12.78° C | 45% | 1010.3 hPa | 0 mm | - | 48 W/m² | - |
| 1778196924 | 13.33° C | 42% | 1010.4 hPa | 0 mm | - | 53 W/m² | - |
| 1778196623 | 13.89° C | 41% | 1010.6 hPa | 0 mm | - | 60 W/m² | - |
| 1778196319 | 13.33° C | 45% | 1010.3 hPa | 0 mm | - | 68 W/m² | - |
| 1778196016 | 12.78° C | 45% | 1010.5 hPa | 0 mm | - | 61 W/m² | - |
| 1778195712 | 12.78° C | 44% | 1010.5 hPa | 0 mm | - | 48 W/m² | - |
| 1778195410 | 12.78° C | 44% | 1010.3 hPa | 0 mm | - | 47 W/m² | - |
| 1778195107 | 12.78° C | 44% | 1010.5 hPa | 0 mm | - | 62 W/m² | - |
| 1778194802 | 12.78° C | 43% | 1010.5 hPa | 0 mm | - | 87 W/m² | - |
| 1778194498 | 13.33° C | 42% | 1010.4 hPa | 0 mm | - | 60 W/m² | - |
| 1778194195 | 13.33° C | 41% | 1010.8 hPa | 0 mm | - | 119 W/m² | - |
* Rain latest hour (hover to see other rain measurements)
** Current wind speed in m/s (hover to see current wind gust speed)